[[{"header":{"parameterUnit":"m.s-1","parameterCategory":1,"la1":30.2991,"la2":30.254,"lo1":-89.0895,"lo2":-89.0444,"dy":0.0017,"dx":0.0017,"nx":28,"ny":28,"refTime":"2023-10-10T03:00:00:Z","depth":0,"parameterNumber":2,"parameterNumberName":"U-component_of_WINDS"},"data":[0,0,0,0,0,0,0,0,0,0,0,0,0,0,0,0,0,0,0,0,0,0,0,0,0,0,0,0,0,0,0,0,0,0,0,0,0,0,0,0,0,0,0,0,0,0,0,0,0,0,0,0,0,0,0,0,0,0,-5.1359,-5.1359,0,-5.1361,-5.1361,-5.1361,-5.1166,-5.1161,-5.1156,-5.1151,-5.1154,-5.1158,-5.1163,0,0,0,0,0,0,0,0,0,0,0,0,0,-5.1187,-5.1192,-5.1359,-5.1359,-5.1359,-5.1361,-5.1361,-5.1361,-5.1167,-5.1161,-5.1155,-5.1149,-5.1152,-5.1158,-5.1164,0,0,0,0,0,0,0,0,0,0,0,0,0,-5.1233,-5.1193,-5.1359,-5.1263,-5.1254,-5.1361,-5.1361,-5.1361,-5.1168,-5.1161,-5.1153,-5.1146,-5.115,-5.1157,-5.1164,-5.1363,0,0,-5.1187,-5.119,0,0,0,0,0,0,0,0,-5.1231,-5.1239,-5.1277,-5.1269,-5.126,-5.1255,-5.1301,-5.1362,-5.117,-5.1201,-5.1151,-5.1142,-5.1194,-5.1197,-5.1214,-5.1364,-5.1364,-5.1187,-5.1192,-5.1195,-5.1197,0,0,0,0,0,0,0,-5.1228,-5.1238,-5.1359,-5.1277,-5.1267,-5.1219,-5.1217,-5.1311,-5.1241,-5.1198,-5.1184,-5.1186,-5.1188,-5.1208,-5.1213,-5.1364,-5.1187,-5.1193,-5.1198,-5.1201,-5.1676,-5.1684,0,0,0,0,0,0,-5.1238,-5.1237,-5.1359,-5.1359,-5.1226,-5.1228,-5.1226,-5.1265,-5.1239,-5.1228,-5.1193,-5.1177,-5.1199,-5.1205,-5.1212,-5.1444,-5.1195,-5.1202,-5.1206,-5.1668,-5.1678,-5.1687,0,0,0,0,0,0,-5.1235,-5.1251,-5.1359,-5.1294,-5.1305,-5.124,-5.1284,-5.1269,-5.1288,-5.1235,-5.1222,-5.1227,-5.1193,-5.1202,-5.1327,-5.1441,-5.1205,-5.1211,-5.1658,-5.1671,-5.1683,-5.191,0,0,0,0,0,0,-5.1231,-5.1251,-5.1326,-5.1298,-5.1309,-5.1475,-5.1291,-5.1274,-5.1301,-5.1281,-5.1263,-5.1253,-5.1188,-5.1317,-5.1335,-5.1447,-5.1217,-5.1648,-5.1664,-5.1679,-5.1892,-5.1929,-5.196,0,0,0,0,0,-5.1225,-5.139,-5.1331,-5.1347,-5.1402,-5.1482,-5.1489,-5.141,-5.1311,-5.1387,-5.1352,-5.1254,-5.1426,-5.1332,-5.1349,-5.1466,-5.164,-5.166,-5.1678,-5.1877,-5.1922,-5.1959,0,0,0,0,0,0,-5.1434,-5.1385,-5.1318,-5.1479,-5.1486,-5.1449,-5.1542,-5.146,-5.1496,-5.1475,-5.1376,-5.1374,-5.1515,-5.1502,-5.1399,-5.1657,-5.1515,-5.1539,-5.1661,-5.1703,-5.1736,-5.1737,-5.1223,0,0,0,0,0,-5.1498,-5.1568,-5.1521,-5.1667,-5.1674,-5.1608,-5.164,-5.1579,-5.1583,-5.1585,-5.1559,-5.1567,-5.1623,-5.1662,-5.171,-5.1888,-5.1882,-5.1977,-5.2011,-5.2039,-5.2061,-5.2155,-5.2197,-5.1748,-5.1748,-5.1748,0,0,-5.1633,-5.1614,-5.1665,-5.1709,-5.1707,-5.1782,-5.1612,-5.1698,-5.1752,-5.1598,-5.1715,-5.1697,-5.1699,-5.1852,-5.1918,-5.1846,-5.2183,-5.2063,-5.2086,-5.2092,-5.2179,-5.2221,-5.2259,-5.1761,-5.1758,-5.1756,0,0,-5.1916,-5.1909,-5.203,-5.2032,-5.2032,-5.1986,-5.2016,-5.1991,-5.1973,-5.2089,-5.1975,-5.2038,-5.2135,-5.2142,-5.2158,-5.2443,-5.2354,-5.2461,-5.2639,-5.2732,-5.2768,-5.2798,-5.2901,-5.2939,-5.2482,-5.2483,-5.2483,0,-5.2084,-5.2191,-5.2103,-5.2197,-5.222,-5.2082,-5.2204,-5.221,-5.2227,-5.2246,-5.2164,-5.2284,-5.2275,-5.2428,-5.2498,-5.2515,-5.2546,-5.2464,-5.2769,-5.28,-5.2827,-5.2924,-5.2963,-5.2496,-5.2494,-5.2493,-5.2492,0,-5.2398,-5.2474,-5.2572,-5.2591,-5.2624,-5.2732,-5.266,-5.2704,-5.264,-5.2603,-5.2723,-5.2708,-5.2751,-5.2782,-5.272,-5.2927,-5.2882,-5.2787,-5.2642,-5.2885,-5.2974,-5.3011,-5.2515,-5.251,-5.2506,-5.2503,0,0,-5.2814,-5.2782,-5.282,-5.2827,-5.2816,-5.2873,-5.2974,-5.3016,-5.3057,-5.3072,-5.3155,-5.324,-5.3152,-5.3171,-5.3107,-5.3189,-5.3417,-5.3083,-5.3082,-5.3147,-5.3645,-5.3719,-5.3763,-5.3357,-5.3364,-5.3369,-5.3646,0,-5.309,-5.3262,-5.3184,-5.3364,-5.3434,-5.3304,-5.3392,-5.3395,-5.3364,-5.3418,-5.3382,-5.3445,-5.3323,-5.3333,-5.3408,-5.3374,-5.3516,-5.3352,-5.3434,-5.3438,-5.344,-5.381,-5.3887,-5.4149,-5.368,-5.3686,-5.369,0,-5.3435,-5.3465,-5.3652,-5.3629,-5.3655,-5.3736,-5.3768,-5.3821,-5.3822,-5.3793,-5.3814,-5.3732,-5.3829,-5.3685,-5.3818,-5.3709,-5.3737,-5.3726,-5.3734,-5.374,-5.3581,-5.3828,-5.4231,-5.4271,-5.3744,-5.374,-5.3736,0,-5.3723,-5.3809,-5.3932,-5.3942,-5.3917,-5.3977,-5.397,-5.3962,-5.3993,-5.402,-5.4039,-5.4078,-5.41,-5.4132,-5.4063,-5.3964,-5.4207,-5.4056,-5.4186,-5.4189,-5.4245,-5.4243,-5.4661,-5.4261,-5.426,-5.426,-5.4259,0,-5.404,-5.416,-5.4061,-5.4137,-5.4267,-5.4177,-5.4309,-5.4287,-5.4282,-5.4351,-5.424,-5.4308,-5.4212,-5.427,-5.4216,-5.4336,-5.4346,-5.4326,-5.4311,-5.4337,-5.434,-5.4356,-5.4337,-5.427,-5.4268,-5.4266,-5.4264,0,-5.4384,-5.4322,-5.4448,-5.4414,-5.4408,-5.4506,-5.4477,-5.4546,-5.4505,-5.4595,-5.4611,-5.4548,-5.4611,-5.4545,-5.4603,-5.4567,-5.4728,-5.4685,-5.4729,-5.4717,-5.4852,-5.4841,-5.5296,-5.5351,-5.4915,-5.492,-5.4923,0,-5.4591,-5.468,-5.4656,-5.4695,-5.4694,-5.4757,-5.4787,-5.4701,-5.4737,-5.4744,-5.4813,-5.4866,-5.4905,-5.5011,-5.4971,-5.5015,-5.4973,-5.513,-5.4979,-5.5003,-5.4978,-5.4974,-5.4983,-5.5161,-5.5166,-5.5171,-5.5174,0,-5.4966,-5.4931,-5.4978,-5.5016,-5.5055,-5.508,-5.5097,-5.5135,-5.5046,-5.5092,-5.5154,-5.5184,-5.5243,-5.5298,-5.5331,-5.5322,-5.5235,-5.5221,-5.5254,-5.5283,-5.5305,-5.5296,-5.4814,-5.5212,-5.5208,-5.5205,-5.5203,-5.5202,-5.5249,-5.5322,-5.5317,-5.5373,-5.5377,-5.5395,-5.5458,-5.5426,-5.5477,-5.5518,-5.5464,-5.5542,-5.554,-5.5574,-5.5576,-5.5636,-5.557,-5.5617,-5.5629,-5.5642,-5.5663,-5.5294,-5.5641,-5.564,-5.5639,-5.5638,-5.5637,0,-5.5619,-5.5609,-5.5662,-5.5689,-5.5734,-5.5646,-5.5659,-5.5703,-5.5773,-5.5778,-5.5818,-5.5891,-5.5943,-5.5907,-5.5951,-5.6007,-5.5968,-5.6021,-5.6017,-5.6017,-5.5719,-5.5687,-5.6052,-5.6052,-5.6052,-5.6052,-5.6052,-5.6052,-5.5817,-5.5937,-5.5902,-5.6022,-5.601,-5.6086,-5.6102,-5.6118,-5.6122,-5.6208,-5.6251,-5.6226,-5.6215,-5.6258,-5.6302,-5.629,-5.6312,-5.6381,-5.6355,-5.6078,-5.6038,-5.5999,-5.5968,-5.6386,-5.6387,-5.6648,-5.665,-5.6652]},{"header":{"parameterUnit":"m.s-1","parameterCategory":1,"la1":30.2991,"la2":30.254,"lo1":-89.0895,"lo2":-89.0444,"dy":0.0017,"dx":0.0017,"nx":28,"ny":28,"refTime":"2023-10-10T03:00:00:Z","depth":0,"parameterNumber":3,"parameterNumberName":"V-component_of_WINDS"},"data":[0,0,0,0,0,0,0,0,0,0,0,0,0,0,0,0,0,0,0,0,0,0,0,0,0,0,0,0,0,0,0,0,0,0,0,0,0,0,0,0,0,0,0,0,0,0,0,0,0,0,0,0,0,0,0,0,0,0,-4.1037,-4.1037,0,-4.105,-4.105,-4.1051,-4.1043,-4.1043,-4.1042,-4.1042,-4.1053,-4.1054,-4.1055,0,0,0,0,0,0,0,0,0,0,0,0,0,-4.1003,-4.1003,-4.1037,-4.1037,-4.1038,-4.105,-4.105,-4.1051,-4.1043,-4.1043,-4.1042,-4.1042,-4.1053,-4.1054,-4.1055,0,0,0,0,0,0,0,0,0,0,0,0,0,-4.1017,-4.1004,-4.1037,-4.1035,-4.1035,-4.105,-4.105,-4.1051,-4.1043,-4.1043,-4.1042,-4.1042,-4.1053,-4.1054,-4.1055,-4.1071,0,0,-4.1058,-4.1058,0,0,0,0,0,0,0,0,-4.1016,-4.1018,-4.1036,-4.1036,-4.1036,-4.1045,-4.1042,-4.1058,-4.1043,-4.104,-4.1042,-4.1041,-4.1051,-4.1052,-4.1055,-4.1072,-4.1072,-4.1058,-4.1058,-4.1059,-4.1059,0,0,0,0,0,0,0,-4.1015,-4.1017,-4.1042,-4.1036,-4.1036,-4.1033,-4.1034,-4.1045,-4.1048,-4.104,-4.104,-4.1042,-4.1051,-4.1054,-4.1056,-4.1073,-4.1058,-4.1059,-4.1059,-4.106,-4.1101,-4.1101,0,0,0,0,0,0,-4.1015,-4.1017,-4.1042,-4.1043,-4.1024,-4.1034,-4.1036,-4.1042,-4.1048,-4.1049,-4.1042,-4.1041,-4.1053,-4.1054,-4.1056,-4.1074,-4.1059,-4.106,-4.106,-4.11,-4.1101,-4.1102,0,0,0,0,0,0,-4.1014,-4.1017,-4.1041,-4.103,-4.1032,-4.1035,-4.1043,-4.1043,-4.1047,-4.1049,-4.105,-4.1046,-4.1053,-4.1055,-4.1067,-4.1074,-4.106,-4.1061,-4.11,-4.1101,-4.1101,-4.1112,0,0,0,0,0,0,-4.1013,-4.1017,-4.1024,-4.103,-4.1033,-4.1053,-4.1043,-4.1043,-4.1048,-4.1048,-4.1053,-4.1053,-4.1052,-4.1066,-4.1068,-4.1075,-4.1062,-4.1099,-4.11,-4.1101,-4.1111,-4.1113,-4.1114,0,0,0,0,0,-4.1012,-4.1026,-4.1024,-4.1028,-4.1042,-4.1054,-4.1056,-4.1055,-4.1049,-4.1056,-4.1057,-4.1053,-4.1074,-4.1067,-4.107,-4.1077,-4.1099,-4.11,-4.1101,-4.111,-4.1112,-4.1114,0,0,0,0,0,0,-4.1021,-4.1027,-4.1025,-4.1042,-4.1048,-4.1053,-4.1061,-4.1058,-4.1065,-4.1064,-4.1062,-4.1063,-4.1076,-4.1078,-4.1071,-4.1093,-4.1085,-4.1087,-4.1091,-4.1093,-4.1095,-4.1094,-4.1062,0,0,0,0,0,-4.1025,-4.1035,-4.104,-4.1054,-4.1057,-4.1059,-4.1064,-4.1063,-4.1068,-4.107,-4.1072,-4.1077,-4.1084,-4.1089,-4.1096,-4.1111,-4.1111,-4.1117,-4.1119,-4.1121,-4.1122,-4.1128,-4.113,-4.1105,-4.1105,-4.1105,0,0,-4.1034,-4.1039,-4.1045,-4.1056,-4.106,-4.1069,-4.1061,-4.1071,-4.1077,-4.1071,-4.1083,-4.1085,-4.109,-4.1103,-4.1109,-4.1105,-4.1129,-4.1122,-4.1124,-4.1124,-4.113,-4.1132,-4.1134,-4.1106,-4.1106,-4.1106,0,0,-4.1054,-4.1059,-4.1071,-4.1075,-4.1081,-4.1082,-4.1084,-4.1089,-4.109,-4.1102,-4.1098,-4.1104,-4.1118,-4.112,-4.1124,-4.1143,-4.1138,-4.1145,-4.1154,-4.116,-4.1162,-4.1164,-4.1169,-4.1171,-4.1146,-4.1146,-4.1146,0,-4.1063,-4.1077,-4.1077,-4.1087,-4.1091,-4.1087,-4.1098,-4.1101,-4.1109,-4.1112,-4.1108,-4.1123,-4.1126,-4.1139,-4.1143,-4.1147,-4.1148,-4.1144,-4.1162,-4.1164,-4.1165,-4.117,-4.1172,-4.1147,-4.1147,-4.1147,-4.1147,0,-4.1088,-4.1097,-4.1106,-4.1113,-4.1119,-4.1129,-4.1129,-4.1134,-4.1133,-4.1133,-4.1144,-4.1148,-4.1154,-4.1157,-4.1156,-4.117,-4.1167,-4.1163,-4.1155,-4.1169,-4.1173,-4.1175,-4.1148,-4.1148,-4.1147,-4.1147,0,0,-4.1114,-4.112,-4.1123,-4.1126,-4.1132,-4.1138,-4.1148,-4.1154,-4.1158,-4.1163,-4.117,-4.118,-4.1176,-4.118,-4.1178,-4.1184,-4.1196,-4.1178,-4.1178,-4.118,-4.1209,-4.1212,-4.1214,-4.1194,-4.1194,-4.1194,-4.1208,0,-4.1133,-4.115,-4.1149,-4.1164,-4.1171,-4.1167,-4.1175,-4.1178,-4.1179,-4.1184,-4.1185,-4.1192,-4.1186,-4.1188,-4.1193,-4.1194,-4.1202,-4.1193,-4.1198,-4.1199,-4.1196,-4.1216,-4.1219,-4.1232,-4.121,-4.1211,-4.1211,0,-4.1157,-4.1162,-4.1178,-4.1181,-4.1184,-4.1191,-4.1196,-4.1202,-4.1206,-4.1206,-4.1209,-4.1206,-4.1214,-4.1207,-4.1217,-4.1211,-4.1213,-4.1213,-4.1214,-4.1213,-4.1205,-4.1215,-4.1237,-4.1238,-4.1214,-4.1214,-4.1213,0,-4.1172,-4.1184,-4.1194,-4.1196,-4.1201,-4.1205,-4.1207,-4.121,-4.1214,-4.1218,-4.122,-4.1225,-4.1227,-4.1231,-4.1229,-4.1224,-4.1239,-4.1232,-4.1238,-4.1238,-4.124,-4.124,-4.1261,-4.1244,-4.1244,-4.1244,-4.1244,0,-4.1192,-4.1201,-4.12,-4.1207,-4.1217,-4.1215,-4.1225,-4.1226,-4.1228,-4.1234,-4.123,-4.1235,-4.1233,-4.1238,-4.1237,-4.1244,-4.1246,-4.1245,-4.1244,-4.1244,-4.1244,-4.1245,-4.1244,-4.1244,-4.1244,-4.1244,-4.1244,0,-4.121,-4.121,-4.1221,-4.1224,-4.1224,-4.1231,-4.1233,-4.1238,-4.1238,-4.1245,-4.1247,-4.1247,-4.1252,-4.1251,-4.1256,-4.1255,-4.1264,-4.1263,-4.1263,-4.1262,-4.1268,-4.1267,-4.1289,-4.1292,-4.1274,-4.1274,-4.1275,0,-4.1222,-4.1229,-4.1232,-4.1235,-4.1237,-4.1243,-4.1247,-4.1245,-4.1249,-4.1252,-4.1257,-4.1262,-4.1265,-4.1273,-4.1273,-4.1277,-4.1275,-4.1283,-4.1276,-4.1275,-4.1274,-4.1273,-4.1273,-4.1284,-4.1284,-4.1284,-4.1284,0,-4.1242,-4.1242,-4.1247,-4.1252,-4.1256,-4.1259,-4.1263,-4.1266,-4.1264,-4.1268,-4.1273,-4.1276,-4.1282,-4.1286,-4.1289,-4.129,-4.1287,-4.1287,-4.1288,-4.1288,-4.1287,-4.1286,-4.1265,-4.1286,-4.1286,-4.1286,-4.1286,-4.1286,-4.1257,-4.1262,-4.1264,-4.127,-4.1272,-4.1275,-4.1279,-4.128,-4.1284,-4.1289,-4.1288,-4.1293,-4.1295,-4.1299,-4.13,-4.1304,-4.1301,-4.1303,-4.1304,-4.1304,-4.1304,-4.1287,-4.1305,-4.1305,-4.1305,-4.1305,-4.1304,0,-4.1275,-4.1277,-4.1282,-4.1286,-4.129,-4.1287,-4.129,-4.1293,-4.1298,-4.13,-4.1304,-4.1309,-4.1313,-4.1313,-4.1316,-4.1319,-4.1317,-4.132,-4.1319,-4.1319,-4.1307,-4.1305,-4.1321,-4.1321,-4.1321,-4.1321,-4.1321,-4.1321,-4.1286,-4.1294,-4.1293,-4.1302,-4.1303,-4.1308,-4.131,-4.1312,-4.1314,-4.132,-4.1323,-4.1323,-4.1324,-4.1327,-4.133,-4.133,-4.1331,-4.1334,-4.1333,-4.1322,-4.132,-4.1318,-4.1316,-4.1334,-4.1334,-4.1344,-4.1344,-4.1344]}]]